Location: Marsån
(66.4167°N, 22.2833°E)
Time: 11:50:23
(UTC+00:00)

Cosmos 1140 Rocket - Pass Details

Date: 24 February 2024
Orbit: 742 x 765 km, 74.1° (Epoch: 15 April)

Event Time Altitude Azimuth Distance (km) Brightness Sun altitude
Rises 21:07:43 0° 300° (WNW) 3,200 7.5 -30.7°
Reaches altitude 10° 21:10:13 10° 308° (NW) 2,278 6.7 -30.8°
Maximum altitude 21:15:06 41° 18° (NNE) 1,089 4.5 -31.0°
Enters shadow 21:15:10 41° 20° (NNE) 1,089 4.5 -31.0°
